Regional Weather Roundup
Issued by NWS

Home | Current Version | Previous Version | Graphics & Text | Print | Product List | Glossary On
Versions: 1 2 3 4 5 6 7 8 9 10 11 12 13 14 15 16 17 18 19 20 21 22 23 24 25 26 27 28 29 30 31 32 33 34 35 36 37 38 39 40 41 42 43 44 45 46 47 48 49 50
000
ASUS45 KTFX 011119
RWRMT
MONTANA HOURLY WEATHER ROUNDUP
NATIONAL WEATHER SERVICE GREAT FALLS MT
519 AM MDT WED OCT 1 2014

NOTE: "FAIR" INDICATES FEW OR NO CLOUDS BELOW 12000 FEET WITH NO
SIGNIFICANT WEATHER AND/OR OBSTRUCTIONS TO VISIBILITY.

* THESE STATIONS ARE NOT UNDER NWS QUALITY CONTROL. THEY DO NOT
   REPORT WEATHER SUCH AS PRECIPITATION OR FOG.

MTZ001>007-043-011200-
WEST OF THE DIVIDE
CITY           SKY/WX    TMP DP  RH WIND       PRES   REMARKS
KALISPELL      CLOUDY    45  43  93 CALM      29.99R
MISSOULA       CLOUDY    45  41  86 NW3       30.03R
BUTTE          CLOUDY    36  32  85 CALM      30.00R
MULLAN PASS    FOG       34  32  92 CALM      30.03R VSB 3
* ESSEX        N/A       41  40  96 N/A        N/A
* LINCOLN      N/A       41  35  79 S3         N/A
* LOOKOUT PASS N/A       34  34 100 NE1        N/A
* POLSON       N/A       43  38  83 S1         N/A
* RONAN APT    PTCLDY    46  41  83 N/A        N/A
* SEELEY LAKE  N/A       39  38  96 NE1        N/A
* THOMP F APT  CLEAR     35  27  73 NW5G12     N/A   WCI  31
* YAAK HILL    N/A       40  37  89 N/A        N/A
$$

MTZ008-052>055-011200-
SOUTHWEST MONTANA
CITY           SKY/WX    TMP DP  RH WIND       PRES   REMARKS
BOZEMAN        CLOUDY    39  36  89 SW6       29.98R WCI  35
DILLON         CLOUDY    39  32  76 S7        29.98R WCI  34
W YELLOWSTONE  CLOUDY    34  32  92 CALM      29.97R
* THREE FORKS  MOCLDY    41  14  33 N/A        N/A
* BOULDER HILL N/A       39  24  55 W2         N/A
* MONIDA PASS  N/A       32  30  92 W14        N/A   WCI  22
* RAYNOLDS PAS N/A       34  -6  17 VRB3G11    N/A
* WHITEHALL    N/A       38  30  73 W2G9       N/A
* WISE RIVER   N/A       36  30  79 SE4G9      N/A
$$

MTZ009>010-012-014-046-048-049-054-011200-
EAST SLOPES AND CENTRAL MONTANA
CITY           SKY/WX    TMP DP  RH WIND       PRES   REMARKS
CUT BANK       PTCLDY    39  36  89 W12       29.91R WCI  32
GREAT FALLS    CLOUDY    43  39  86 SW8       29.92R
HELENA         CLOUDY    48  36  63 W9        29.95R
MALMSTROM AFB  CLOUDY    45  41  86 SW8       29.94R
* CONRAD       CLOUDY    46  41  83 SW9        N/A
* DEARBORN     N/A       45  40  83 S2         N/A
* EAST GLACIER N/A       36  33  89 NW6        N/A   WCI  31
* MONARCH      N/A       38  34  86 SW4        N/A
* PENDROY      N/A       40  35  82 W8         N/A   WCI  35
* ROGERS PASS  N/A       38  33  82 SE9G16     N/A   WCI  32
* SAINT MARY   N/A       33  33 100 SE3        N/A
* SWEET GRASS  N/A       40  38  93 NW14G19    N/A   WCI  32
$$

MTZ011-013-016-021-035-040-045-047-050-051-011200-
NORTH CENTRAL MONTANA
CITY           SKY/WX    TMP DP  RH WIND       PRES   REMARKS
HAVRE          CLOUDY    45  43  93 SW8       29.84R
LEWISTOWN      CLOUDY    45  39  80 W14       29.89R
* CHINOOK      CLOUDY    46  45  96 W12       29.82R
* FORT BENTON  MOCLDY    46  41  83 SW8       29.90R
* DENTON       N/A       45  40  83 W16        N/A
* JUDITH GAP   N/A       41  40  96 NW8        N/A
* LOMA         N/A       47  42  83 SW9G16     N/A
$$

MTZ017>020-022>027-061-062-011200-
NORTHEAST MONTANA
CITY           SKY/WX    TMP DP  RH WIND       PRES   REMARKS
GLASGOW        CLOUDY    48  45  89 W17G23    29.69R
GLENDIVE       CLOUDY    52  46  80 W18G30    29.71R
JORDAN         PTCLDY    48  45  89 W15G26    29.76R
SIDNEY         CLOUDY    54  48  80 W17G25    29.64R
WOLF POINT     CLOUDY    54  46  74 W14G24    29.66R
* BEAVER HILL  N/A       51  49  93 W22G32     N/A
* CIRCLE       N/A       50  47  89 W8G19      N/A
* LINDSAY DVD  N/A       48  46  93 W21G32     N/A
* NAVAJO       N/A       50  49  96 NW18G28    N/A
$$

MTZ028>042-056>058-011200-
SOUTHCENTRAL AND SOUTHEAST MONTANA
CITY           SKY/WX    TMP DP  RH WIND       PRES   REMARKS
BAKER          LGT RAIN  50  48  93 W22G30    29.72R
BILLINGS       MOCLDY    46  37  71 NW7       29.87R
LIVINGSTON     PTCLDY    43  32  65 W12G18    29.94R
MILES CITY     CLOUDY    52  43  72 NW23G32   29.77R
* LAUREL APT   MOCLDY    46  34  63 N/A        N/A
* ROUNDUP APT  MOCLDY    48  36  63 N/A        N/A
* ALZADA       N/A       50  47  89 W11        N/A
* HYSHAM       N/A       48  39  71 W14G24     N/A
* LAME DEER    N/A       45  40  83 NW12G26    N/A
* REED POINT   N/A       49  29  46 W16G27     N/A
* ROSCOE HILL  N/A       42  21  43 SW1G8      N/A
$$

REGIONAL REPORTS...DAKOTAS
CITY           SKY/WX    TMP DP  RH WIND       PRES   REMARKS
WILLISTON      CLOUDY    54  48  80 W17G25    29.54R
DICKINSON      MOCLDY    52  48  86 W20       29.61R
BEACH          N/A       50  50 100 W20G25    29.68R
CROSBY         N/A      N/A N/A N/A N/A        N/A
TIOGA          FOG       50  50 100 W16G22    29.52R VSB 3
WATFORD CITY   LGT RAIN  52  52 100 W16       29.56R VSB 2 1/2
BISMARCK       CLOUDY    57  54  90 W13       29.57R
GRAND FORKS    CLOUDY    61  54  78 SW14      29.53R
FARGO          PTCLDY    61  55  81 S15G21    29.60S
BUFFALO SD     MOCLDY    52  48  86 W18       29.66R
RAPID CITY     MOCLDY    50  45  83 W6        29.76S
$$

REGIONAL REPORTS...WYOMING/IDAHO/WASHINGTON
CITY           SKY/WX    TMP DP  RH WIND       PRES   REMARKS
GILLETTE       CLOUDY    46  43  89 NW12      29.83S
SHERIDAN       LGT RAIN  46  43  89 NW13      29.87R
CODY           CLOUDY    45  43  93 CALM      29.89S
YELLOWSTONE LA CLOUDY    30  28  92 CALM      29.98R
SALMON         CLOUDY    43  37  79 NW5       30.04R
MULLAN PASS    FOG       34  32  92 CALM      30.03S VSB 3
SAND POINT     FOG       41  41 100 CALM      30.04R VSB M1/4
SPOKANE        CLEAR     43  34  71 S7        30.05R
$$

REGIONAL REPORTS...ALBERTA
CITY           SKY/WX    TMP DP  RH WIND       PRES   REMARKS
CALGARY        FAIR      36  32  85 NW2       29.88R
LETHBRIDGE     MOCLDY    39  37  93 SW7       29.90R WCI  34
MEDICINE HAT   CLEAR     41  37  86 W13       29.84R
EDMONTON       N/A       34  30  85 VRB2      29.82R
WATERTON GATE  N/A       41  36  82 SW14G21    N/A
CARDSTON       N/A       39  36  89 SW8        N/A   WCI  33
MILK RIVER     N/A       37  34  89 W10        N/A   WCI  30
$$

REGIONAL REPORTS...SASKATCHEWAN
CITY           SKY/WX    TMP DP  RH WIND       PRES   REMARKS
SWIFT CURRENT  CLOUDY    46  45  96 NW16G22   29.67R
MOOSE JAW      LGT RAIN  52  50  93 NW16G22   29.55R
REGINA         LGT RAIN  50  50 100 NW20G28   29.49R
VAL MARIE      N/A       48  45  89 NW16G22    N/A
ASSINIBOIA     N/A       50  48  93 NW20       N/A
CORONACH       N/A       50  48  93 W18G24     N/A

$$



USA.gov is the U.S. government's official web portal to all federal, state and local government web resources and services.